VE3CTP Weather Reports


Display with metric or nautical units.
time (UTC)temp
F
wind
direction
speed
MPH
gust
MPH
rain 1hr
in
rain 24hr
in
rain mn
in
humidity
%
barometer
mb
20260506090533 49 264 0.0 0.0 0.00 0.02 0.00 100
20260506090033 49 264 0.0 0.0 0.00 0.02 0.00 100
20260506085533 49 264 0.0 3.0 0.00 0.02 0.00 100
20260506085033 49 247 1.0 2.0 0.00 0.02 0.00 100
20260506084533 49 265 0.0 0.0 0.00 0.02 0.00 100
20260506084033 49 265 0.0 1.0 0.00 0.02 0.00 100
20260506083533 49 253 0.0 0.0 0.00 0.02 0.00 100
20260506083033 48 253 0.0 0.0 0.00 0.02 0.00 100
20260506082533 49 253 0.0 0.0 0.00 0.02 0.00 100
20260506082033 48 253 0.0 0.0 0.00 0.02 0.00 100
20260506081533 48 253 0.0 0.0 0.00 0.02 0.00 100
20260506081033 49 253 0.0 0.0 0.00 0.02 0.00 100
20260506080533 48 253 0.0 0.0 0.00 0.02 0.00 100
20260506073033 48 219 0.0 2.0 0.00 0.02 0.00 100
20260506072533 49 240 0.0 0.0 0.00 0.02 0.00 100
20260506072033 49 240 0.0 0.0 0.00 0.02 0.00 100
20260506071533 48 241 0.0 2.0 0.00 0.02 0.00 100
20260506071033 49 277 0.0 0.0 0.00 0.02 0.00 100
20260506070533 49 277 0.0 0.0 0.00 0.02 0.00 100
20260506062033 49 258 0.0 2.0 0.00 0.02 0.00 100
20260506061533 49 208 0.0 2.0 0.00 0.02 0.00 100
20260506061033 49 208 0.0 3.0 0.00 0.02 0.00 100
20260506060533 49 240 2.0 5.0 0.00 0.02 0.00 100
20260506051033 49 192 0.0 4.0 0.00 0.02 0.00 100
20260506050533 50 201 0.0 3.0 0.00 0.02 0.00 100
20260506045033 49 196 0.0 2.0 0.00 0.02 0.00 100
20260506044533 50 239 0.0 4.0 0.00 0.02 0.00 100
20260506044033 50 233 1.0 3.0 0.00 0.02 0.00 100
20260506043533 49 156 0.0 1.0 0.00 0.02 0.00 100
20260506043033 49 226 1.0 2.0 0.00 0.02 0.00 100
20260506042533 49 205 0.0 2.0 0.00 0.02 0.00 100
20260506042033 50 144 0.0 0.0 0.00 0.02 0.00 100
20260506041533 50 144 0.0 0.0 0.00 0.02 0.00 100
20260506041033 50 144 0.0 0.0 0.00 0.02 0.00 100
20260506040533 49 144 0.0 0.0 0.00 0.02 0.00 100
20260506040033 50 147 0.0 0.0 0.00 0.02 0.00 100
20260506035533 49 147 0.0 0.0 0.00 0.02 0.00 100
20260506035033 50 147 0.0 1.0 0.00 0.02 0.00 100
20260506034533 49 187 0.0 0.0 0.00 0.02 0.00 100
20260506034033 50 178 0.0 0.0 0.00 0.02 0.00 100
20260506033533 50 178 0.0 0.0 0.00 0.02 0.00 100
20260506033033 50 178 0.0 1.0 0.00 0.02 0.00 100
20260506032533 50 215 0.0 0.0 0.00 0.02 0.00 100
20260506032033 50 215 0.0 0.0 0.00 0.02 0.00 100
20260506031533 50 215 0.0 3.0 0.00 0.02 0.00 100
20260506031033 50 194 2.0 2.0 0.00 0.02 0.00 100
20260506030533 50 281 0.0 0.0 0.00 0.02 0.00 100
20260506030033 50 281 0.0 0.0 0.00 0.02 0.00 100
20260506025533 50 281 0.0 0.0 0.00 0.02 0.00 100
20260506025033 50 281 0.0 0.0 0.00 0.02 0.00 100
20260506024533 50 281 0.0 0.0 0.00 0.02 0.00 100
20260506024033 50 281 0.0 0.0 0.00 0.02 0.00 100
20260506023533 51 281 0.0 0.0 0.00 0.02 0.00 100
20260506023033 51 281 0.0 0.0 0.00 0.02 0.00 100
20260506022533 52 281 0.0 0.0 0.00 0.02 0.00 100
20260506022033 52 281 0.0 0.0 0.00 0.02 0.00 100
20260506021533 52 281 0.0 0.0 0.00 0.02 0.00 100
20260506021033 52 281 0.0 0.0 0.00 0.02 0.00 100
20260506020533 53 281 0.0 3.0 0.00 0.02 0.00 100
20260506020033 53 226 0.0 0.0 0.00 0.02 0.00 100
20260506015533 53 226 0.0 0.0 0.00 0.02 0.00 100
20260506015033 54 226 0.0 0.0 0.00 0.02 0.00 100
20260506014534 54 226 0.0 0.0 0.00 0.02 0.00 100
20260506014034 54 226 0.0 0.0 0.00 0.02 0.00 100
20260506013534 53 226 0.0 1.0 0.00 0.02 0.00 100
20260506013034 54 239 0.0 1.0 0.00 0.02 0.00 100
20260506012534 54 281 0.0 0.0 0.00 0.02 0.00 100
20260506012034 54 281 0.0 0.0 0.00 0.02 0.00 100
20260506011534 54 281 0.0 0.0 0.00 0.02 0.00 100
20260506011034 54 281 0.0 0.0 0.00 0.02 0.00 100
20260506010534 54 281 0.0 0.0 0.00 0.02 0.00 100
20260506010034 54 281 0.0 0.0 0.00 0.02 0.00 100
20260506005534 55 281 0.0 1.0 0.00 0.02 0.00 100
20260506005034 55 254 0.0 2.0 0.00 0.02 0.00 100
20260506004534 55 230 0.0 1.0 0.00 0.02 0.00 100
20260506004034 55 329 1.0 1.0 0.00 0.02 0.00 100
20260506003534 55 237 0.0 3.0 0.00 0.02 0.00 100
20260506003034 56 261 2.0 5.0 0.00 0.02 0.00 100
20260506002534 56 247 1.0 3.0 0.00 0.02 0.00 100
20260506002034 56 295 0.0 7.0 0.00 0.02 0.00 100
20260506001534 56 250 2.0 5.0 0.00 0.02 0.00 100
20260506001034 56 272 1.0 6.0 0.00 0.02 0.00 100
20260506000534 56 217 0.0 2.0 0.00 0.02 0.00 100
20260506000034 57 293 0.0 0.0 0.00 0.02 0.00 100
20260505235534 56 293 0.0 0.0 0.00 0.02 0.00 100
20260505235034 57 293 0.0 2.0 0.00 0.02 0.00 100
20260505234534 57 260 0.0 2.0 0.00 0.02 0.00 100
20260505234034 56 262 0.0 4.0 0.00 0.02 0.00 100
20260505233534 56 270 4.0 6.0 0.00 0.02 0.00 100
20260505233034 57 305 0.0 2.0 0.00 0.02 0.00 100
20260505232534 56 248 0.0 0.0 0.00 0.02 0.00 100
20260505232034 57 248 0.0 3.0 0.00 0.02 0.00 100
20260505231534 57 251 0.0 2.0 0.00 0.02 0.00 100
20260505231034 57 281 0.0 2.0 0.00 0.02 0.00 100
20260505230534 57 270 0.0 3.0 0.00 0.02 0.00 100
20260505230034 57 254 0.0 3.0 0.00 0.02 0.00 100
20260505225534 57 217 0.0 4.0 0.00 0.02 0.00 100
20260505225034 57 320 0.0 4.0 0.00 0.02 0.00 100
20260505224534 57 244 1.0 5.0 0.00 0.02 0.00 100
20260505224034 57 274 3.0 3.0 0.00 0.02 0.00 100
20260505223534 57 291 0.0 0.0 0.00 0.02 0.00 100
20260505223034 57 291 0.0 3.0 0.00 0.02 0.00 100
20260505222534 57 239 3.0 4.0 0.00 0.02 0.00 100
20260505222034 56 225 0.0 2.0 0.00 0.02 0.00 100
20260505221534 57 230 1.0 3.0 0.00 0.02 0.00 100
20260505221034 57 205 0.0 10.0 0.00 0.02 0.00 100
20260505220534 57 267 0.0 5.0 0.00 0.02 0.00 100
20260505220034 57 39 1.0 6.0 0.00 0.02 0.00 100
20260505215534 58 272 3.0 5.0 0.00 0.02 0.00 100
20260505215034 57 260 0.0 7.0 0.00 0.02 0.00 100
20260505214534 57 268 0.0 8.0 0.00 0.02 0.00 100
20260505214034 58 251 4.0 5.0 0.00 0.02 0.00 100
20260505213534 57 289 4.0 7.0 0.00 0.02 0.00 100
20260505213034 57 239 0.0 5.0 0.00 0.02 0.00 100
20260505212534 57 288 1.0 8.0 0.00 0.02 0.00 100
20260505212034 57 281 0.0 6.0 0.00 0.02 0.00 100
20260505211534 57 236 0.0 3.0 0.00 0.02 0.00 100
20260505211034 58 251 0.0 3.0 0.00 0.02 0.00 100
20260505210534 58 268 1.0 6.0 0.00 0.02 0.00 100
20260505210034 58 237 0.0 7.0 0.00 0.02 0.00 100
20260505205534 58 196 1.0 6.0 0.00 0.02 0.00 100
20260505205034 58 226 3.0 5.0 0.00 0.02 0.00 100
20260505204534 58 258 2.0 8.0 0.00 0.02 0.00 100
20260505204034 58 199 1.0 7.0 0.00 0.02 0.00 100
20260505203534 58 279 4.0 10.0 0.00 0.02 0.00 100
20260505203034 58 243 0.0 5.0 0.00 0.02 0.00 100
20260505202534 58 163 0.0 7.0 0.00 0.02 0.00 100
20260505202034 57 271 4.0 10.0 0.00 0.02 0.00 100
20260505201534 57 246 5.0 7.0 0.00 0.02 0.00 100
20260505201034 57 262 2.0 12.0 0.00 0.02 0.00 100
20260505200534 57 240 2.0 7.0 0.00 0.02 0.00 100
20260505200034 57 260 1.0 9.0 0.00 0.02 0.00 100
20260505195534 57 244 3.0 8.0 0.00 0.02 0.00 100
20260505195034 56 292 2.0 9.0 0.00 0.02 0.00 100
20260505194534 57 246 4.0 10.0 0.00 0.02 0.00 100
20260505194034 57 241 3.0 13.0 0.00 0.02 0.00 100
20260505193534 57 277 3.0 12.0 0.00 0.02 0.00 100
20260505193034 57 298 1.0 5.0 0.00 0.02 0.00 100
20260505192534 57 277 1.0 11.0 0.00 0.02 0.00 100
20260505192034 58 270 5.0 12.0 0.00 0.02 0.00 100
20260505191534 58 251 5.0 14.0 0.00 0.02 0.00 100
20260505191034 58 206 4.0 11.0 0.00 0.02 0.00 100
20260505190534 58 258 4.0 15.0 0.00 0.02 0.00 100
20260505190034 58 264 4.0 10.0 0.00 0.02 0.00 100
20260505185534 58 272 3.0 13.0 0.00 0.02 0.00 100
20260505185034 57 236 2.0 14.0 0.00 0.02 0.00 100
20260505184534 58 254 0.0 9.0 0.00 0.02 0.00 100
20260505184034 58 268 2.0 13.0 0.00 0.02 0.00 100
20260505183534 58 319 4.0 12.0 0.00 0.02 0.00 100
20260505183034 58 248 2.0 8.0 0.00 0.02 0.00 100
20260505182534 58 278 2.0 14.0 0.00 0.02 0.00 100
20260505182034 58 277 4.0 10.0 0.00 0.02 0.00 100
20260505181534 58 272 3.0 19.0 0.00 0.02 0.00 100
20260505181034 58 337 1.0 6.0 0.00 0.02 0.00 100
20260505180534 58 285 3.0 8.0 0.00 0.02 0.00 100
20260505180034 58 282 0.0 6.0 0.00 0.02 0.02 100
20260505175534 58 285 0.0 5.0 0.00 0.02 0.02 100
20260505175034 58 281 3.0 4.0 0.00 0.02 0.02 100
20260505174534 57 268 1.0 5.0 0.00 0.02 0.02 100
20260505174034 56 277 0.0 6.0 0.01 0.02 0.02 100
20260505173534 56 90 0.0 10.0 0.01 0.02 0.02 100
20260505173034 58 296 0.0 3.0 0.01 0.02 0.02 100
20260505172535 57 286 0.0 7.0 0.01 0.02 0.02 100
20260505172034 58 285 0.0 3.0 0.01 0.02 0.02 100
20260505171535 58 296 1.0 3.0 0.01 0.02 0.02 100
20260505171035 58 336 0.0 6.0 0.01 0.02 0.02 100
20260505170535 59 270 0.0 2.0 0.01 0.02 0.02 100
20260505170035 60 323 0.0 4.0 0.01 0.02 0.02 100
20260505165535 60 303 3.0 10.0 0.01 0.02 0.02 100
20260505165035 60 305 0.0 10.0 0.01 0.02 0.02 100
20260505164535 60 338 1.0 9.0 0.01 0.02 0.02 100
20260505164035 60 243 7.0 11.0 0.00 0.01 0.01 100
20260505163535 59 270 8.0 10.0 0.00 0.01 0.01 100
20260505163035 57 75 8.0 8.0 0.00 0.01 0.01 100
20260505162535 58 80 1.0 1.0 0.00 0.01 0.01 100
20260505162035 58 23 0.0 7.0 0.00 0.01 0.01 100
20260505161535 58 70 2.0 6.0 0.01 0.01 0.01 100
20260505161035 58 70 2.0 7.0 0.01 0.01 0.01 100
20260505160535 58 54 3.0 4.0 0.01 0.01 0.01 100
20260505153035 63 174 0.0 2.0 0.01 0.01 0.01 100
20260505152535 63 306 1.0 3.0 0.01 0.01 0.01 100
20260505152035 64 295 0.0 6.0 0.01 0.01 0.01 100
20260505151535 64 315 0.0 8.0 0.00 0.00 0.00 100
20260505151035 64 317 1.0 5.0 0.00 0.00 0.00 100
20260505150535 66 277 0.0 5.0 0.00 0.00 0.00 100
20260505140535 66 344 1.0 10.0 0.00 0.00 0.00 100
20260505125035 67 195 0.0 11.0 0.00 0.00 0.00 100
20260505124535 66 271 8.0 17.0 0.00 0.00 0.00 100
20260505124035 65 246 8.0 14.0 0.00 0.00 0.00 100
20260505123535 65 300 0.0 11.0 0.00 0.00 0.00 100
20260505123035 63 257 7.0 11.0 0.00 0.00 0.00 100
20260505122535 64 316 0.0 10.0 0.00 0.00 0.00 100
20260505122035 63 271 6.0 10.0 0.00 0.00 0.00 100
20260505121535 63 255 1.0 9.0 0.00 0.00 0.00 100
20260505121035 63 281 3.0 10.0 0.00 0.00 0.00 100
20260505120535 63 274 4.0 10.0 0.00 0.00 0.00 100
20260505120035 62 216 2.0 7.0 0.00 0.00 0.00 100
20260505115535 61 227 2.0 8.0 0.00 0.00 0.00 100
20260505115035 61 260 5.0 9.0 0.00 0.00 0.00 100
20260505114535 60 232 4.0 7.0 0.00 0.00 0.00 100
20260505114035 59 264 6.0 7.0 0.00 0.00 0.00 100
20260505113535 59 270 4.0 10.0 0.00 0.00 0.00 100
20260505113035 59 312 1.0 9.0 0.00 0.00 0.00 100
20260505112535 59 241 3.0 11.0 0.00 0.00 0.00 100
20260505112035 59 215 1.0 7.0 0.00 0.00 0.00 100
20260505111535 59 212 2.0 7.0 0.00 0.00 0.00 100
20260505111035 59 270 6.0 11.0 0.00 0.00 0.00 100
20260505110535 59 271 9.0 13.0 0.00 0.00 0.00 100
20260505102035 59 244 5.0 13.0 0.00 0.00 0.00 100
20260505101535 59 295 4.0 12.0 0.00 0.00 0.00 100
20260505101035 59 309 3.0 15.0 0.00 0.00 0.00 100
20260505100535 59 254 4.0 11.0 0.00 0.00 0.00 100
20260505100035 59 271 2.0 14.0 0.00 0.00 0.00 100
20260505095535 59 251 3.0 14.0 0.00 0.00 0.00 100
20260505095035 59 275 3.0 15.0 0.00 0.00 0.00 100
20260505094535 59 239 7.0 11.0 0.00 0.00 0.00 100
20260505094035 59 272 3.0 20.0 0.00 0.00 0.00 100
20260505093535 59 270 4.0 13.0 0.00 0.00 0.00 100
20260505093035 59 275 3.0 9.0 0.00 0.00 0.00 100
20260505092535 59 241 5.0 10.0 0.00 0.00 0.00 100
20260505092035 59 226 2.0 13.0 0.00 0.00 0.00 100
20260505091536 59 239 4.0 12.0 0.00 0.00 0.00 100
20260505091035 59 237 2.0 12.0 0.00 0.00 0.00 100